STARLINK-30950, 58440

Orbit data source: Space-Track

STARLINK-30950, 58440 is a payload satellite owned by SpaceX/Seattle (US) in LEO that was launched on Tue, 28 Nov 2023 UTC via an FALCON 9 launch vehicle from the Air Force Eastern Test Range (AFETR). Payload-class satellites include a variety of spacecraft equipped with specific instruments for various scientific and technological missions. These include communications satellites like Starlink; space stations such as the ISS; scientific satellites like the Hubble; Earth observation satellites from companies like Planet Labs, Umbra, and HawkEye 360; GPS; miniature CubeSats for education and research; and military/defense satellites.

Loading next visibility...
Identifier
58440, 2023-183D
Orbit
LEO
Country
Flag of USUS
Related business
Manufacturer
SpaceX/Seattle
Mission
Operational Commercial Communications
Bus & Motor
STARLINK V2M, Unknown motor
Mass
730 kg wet, ~700 kg dry
Launch date (UTC)
2023-11-28 (3 years ago)
Launch vehicle
FALCON 9
Launch site
Air Force Eastern Test Range (AFETR)
Object type
Payload
Rocket body
Debris
Shape & HBR
Box + 2 Pan, 17.7 m
Radar Cross Section
33.884 m², Large (>1 m²)

Expand to show TLE details & history
Last TLE update: 2 days ago

TLE from 2 days ago
0 STARLINK-30950
1 58440U 23183D   26171.48045889  .00000932  00000-0  43390-4 0  9998
2 58440  43.0065 344.6226 0002010 281.0340  79.0285 15.27577035144753
Epoch: 2026-06-20T11:31Z
TLE epoch observation values (Epoch: 2026-06-20T11:31:51.648Z)
Latitude
-0.00004°
Longitude
-97.03712°
Altitude
482.572 km
Speed
7.626 km/s
True Right ascension
22h 58m 29s
True Declination
0° 00' 00"
Sunlit
Object was in daylight at epoch
Visualization orbit readout
Latitude
Unknown
Longitude
Unknown
Altitude
Unknown
Speed
Unknown
Apparent Right ascension
Unknown
Apparent Declination
Unknown
Sunlit
N/A
Visualization observer readout
Local Sidereal Time
21:29:19
Azimuth
Unknown
Elevation
Unknown
Doppler factor
Unknown
Orbital elements
Apogee altitude
486.382 km
Perigee altitude
483.623 km
Semi-major axis
6,863.139 km
Eccentricity
0.0002
Inclination
43.0065°
RAAN
344.6226°
Arg. of periapsis
281.034°
True anomaly
79.05111°
Mean anomaly
79.0285°
Eccentric anomaly
79.03981°
Mean motion
3.81732 °/min
Orbital period
94.31 mins
BSTAR
0.00004339
Loading maneuver chart data...
Computing Atmospheric mass density...
Loading historical data...
Loading historical data...
Loading historical data...
Loading historical data...
Loading historical data...
Loading historical data...
Loading historical data...

Documentation

Showing up to 5 results
|